Regional Weather Roundup
Issued by NWS

Home | Current Version | Previous Version | Graphics & Text | Print | Product List | Glossary On
Versions: 1 2 3 4 5 6 7 8 9 10 11 12 13 14 15 16 17 18 19 20 21 22 23 24 25 26 27 28 29 30 31 32 33 34 35 36 37 38 39 40 41 42 43 44 45 46 47 48 49 50
000
ASUS43 KFSD 231410
RWRSD

WEATHER ROUNDUP FOR SOUTH DAKOTA
NATIONAL WEATHER SERVICE SIOUX FALLS SD
900 AM CDT THU MAR 23 2017

NOTE: "FAIR" INDICATES FEW OR NO CLOUDS BELOW 12,000 FEET WITH NO
SIGNIFICANT WEATHER AND/OR OBSTRUCTIONS TO VISIBILITY.


SDZ001>005-009-010-012>017-231500-
NORTHWEST AND NORTH CENTRAL SOUTH DAKOTA

CITY           SKY/WX    TMP DP  RH WIND       PRES   REMARKS
BUFFALO          N/A     44  39  82 CALM      29.66R
FAITH            N/A     38  38 100 NE8       29.69F
MOBRIDGE       PTSUNNY   43  30  60 SE8       29.73R
$$

SDZ012>016-024>037-041>051-057-063-072>074-231500-
SOUTHWEST AND SOUTH CENTRAL SOUTH DAKOTA

CITY           SKY/WX    TMP DP  RH WIND       PRES   REMARKS
RAPID CTY ARPT MOSUNNY   47  40  76 N16       29.65F
PIERRE         CLOUDY    42  33  70 SE13      29.69F
CUSTER         CLOUDY    45  35  68 N6        29.68S
ELLSWORTH AFB  PTSUNNY   46  43  92 N16       29.66S
PHILIP         CLOUDY    45  37  73 SE6       29.67R
PINE RIDGE     MOSUNNY   44  37  76 S13       29.66S
SPEARFISH      FAIR      43  41  93 W3        29.69F
WINNER         PTSUNNY   48  36  63 S17       29.72F
$$

SDZ004>011-016>023-039-040-231500-
NORTHEAST SOUTH DAKOTA

CITY           SKY/WX    TMP DP  RH WIND       PRES   REMARKS
ABERDEEN       CLOUDY    39  27  62 S17G25    29.82R
WATERTOWN      PTSUNNY   36  26  67 S17       29.86F
BROOKINGS      MOSUNNY   37  25  61 SE20G25   29.89F
SISSETON         N/A     38  29  70 S16       29.87F
$$

SDZ017-020-022-023-036>040-048>070-231500-
SOUTHEAST SOUTH DAKOTA

CITY           SKY/WX    TMP DP  RH WIND       PRES   REMARKS
SIOUX FALLS    CLOUDY    41  25  53 SE17G23   29.92F
HURON          CLOUDY    41  29  62 SE21G31   29.81F
CHAMBERLAIN    CLOUDY    45  34  65 E12       29.76F
MITCHELL       CLOUDY    43  29  57 SE21G28   29.84F
YANKTON        CLOUDY    43  27  52 SE14G20   29.88S
$$

ABBREVIATIONS USED IN REMARKS
   TC - TEMPERATURE IN CELSIUS
  WCI - WIND CHILL INDEX
   HX - HEAT INDEX
  VSB - VISIBILITY





USA.gov is the U.S. government's official web portal to all federal, state and local government web resources and services.